Change the Weather History Date:

Sunday, October 27, 2013

  Actual Average Record
Temperature  
Mean Temperature 58 °F 56 °F  
Max Temperature 64 °F 68 °F 85 °F (1940)
Min Temperature 51 °F 45 °F 25 °F (1962)
Degree Days  
Heating Degree Days 7 9  
Month to date heating degree days 149 155  
Since 1 July heating degree days 150 178  
Cooling Degree Days 0 0  
Month to date cooling degree days 51 37  
Year to date cooling degree days 1436 1524  
Growing Degree Days 8 (Base 50)    
Moisture  
Dew Point 41 °F    
Average Humidity 61    
Maximum Humidity 77    
Minimum Humidity 44    
Precipitation  
Precipitation 0.00 in 0.09 in 1.39 in (1995)
Month to date precipitation 0.91 2.15  
Year to date precipitation 56.71 38.99  
Snow  
Snow 0.00 in 0.00 in - ()
Month to date snowfall 0.0 0.0  
Since 1 July snowfall 0.0 0.0  
Since 1 September snowfall 0.0 0.0  
Snow Depth 0.00 in    
Sea Level Pressure  
Sea Level Pressure 30.11 in    
Wind  
Wind Speed 4 mph (WSW)    
Max Wind Speed 10 mph    
Max Gust Speed 15 mph    
Visibility 10 miles    
Events      
T = Trace of Precipitation, MM = Missing Value Source: NWS Daily Summary

Daily Weather History Graph

Daily Weather History Graph

Search for Another Location

Airport or City:

Trip Planner

Search our weather history database for the weather conditions in past years. The results will help you decide how hot, cold, wet, or windy it might be!

Date:

Astronomy

Oct. 27, 2013 Rise Set
Actual Time 7:53 AM EDT 6:45 PM EDT
Civil Twilight 7:27 AM EDT 7:11 PM EDT
Nautical Twilight 6:57 AM EDT 7:41 PM EDT
Astronomical Twilight 6:27 AM EDT 8:11 PM EDT
Moon 1:03 AM EDT 2:41 PM EDT
Length of Visible Light 11h 44m
Length of Day
10h 51m
Last Quarter, 44% of the Moon is Illuminated
Oct 27
Last Quarter
Nov 3
New
Nov 10
First Quarter
Nov 17
Full
Nov 25
Last Quarter

Hourly Weather History & Observations

Time (EDT) Temp. Dew Point Humidity Pressure Visibility Wind Dir Wind Speed Gust Speed Precip Events Conditions
12:53 AM 53.1 °F 33.1 °F 47% 30.13 in 10.0 mi SW 4.6 mph - N/A   Overcast
1:53 AM 53.1 °F 33.1 °F 47% 30.12 in 10.0 mi Calm Calm - N/A   Overcast
2:53 AM 53.1 °F 33.1 °F 47% 30.11 in 10.0 mi Calm Calm - N/A   Overcast
3:53 AM 54.0 °F 33.1 °F 45% 30.10 in 10.0 mi Calm Calm - N/A   Overcast
4:53 AM 53.1 °F 35.1 °F 50% 30.09 in 10.0 mi Calm Calm - N/A   Overcast
5:53 AM 53.1 °F 35.1 °F 50% 30.10 in 10.0 mi West 3.5 mph - N/A   Overcast
6:53 AM 52.0 °F 39.0 °F 61% 30.10 in 10.0 mi SW 3.5 mph - N/A   Overcast
7:53 AM 52.0 °F 37.9 °F 59% 30.11 in 10.0 mi West 3.5 mph - N/A   Overcast
8:53 AM 53.1 °F 37.9 °F 57% 30.12 in 10.0 mi Calm Calm - N/A   Mostly Cloudy
9:53 AM 55.0 °F 39.9 °F 57% 30.13 in 10.0 mi Calm Calm - N/A   Mostly Cloudy
10:53 AM 57.0 °F 39.9 °F 53% 30.14 in 10.0 mi Variable 3.5 mph - N/A   Mostly Cloudy
11:53 AM 62.1 °F 41.0 °F 46% 30.13 in 10.0 mi SW 4.6 mph - N/A   Mostly Cloudy
12:53 PM 64.0 °F 42.1 °F 45% 30.12 in 10.0 mi WSW 6.9 mph - N/A   Mostly Cloudy
1:53 PM 62.1 °F 43.0 °F 50% 30.11 in 10.0 mi West 5.8 mph - N/A   Overcast
2:53 PM 63.0 °F 43.0 °F 48% 30.09 in 10.0 mi SW 5.8 mph - N/A   Overcast
3:53 PM 63.0 °F 45.0 °F 52% 30.08 in 10.0 mi SW 5.8 mph - N/A   Mostly Cloudy
4:53 PM 63.0 °F 45.0 °F 52% 30.08 in 10.0 mi WSW 8.1 mph - N/A   Overcast
5:53 PM 62.1 °F 46.0 °F 56% 30.08 in 10.0 mi SW 3.5 mph - N/A   Overcast
6:53 PM 61.0 °F 48.0 °F 62% 30.08 in 10.0 mi SW 4.6 mph - N/A   Overcast
7:53 PM 61.0 °F 48.0 °F 62% 30.09 in 10.0 mi Calm Calm - N/A   Overcast
8:53 PM 60.1 °F 50.0 °F 69% 30.11 in 10.0 mi WSW 8.1 mph - N/A   Overcast
9:53 PM 59.0 °F 51.1 °F 75% 30.12 in 10.0 mi SW 5.8 mph - N/A   Overcast
10:53 PM 59.0 °F 51.1 °F 75% 30.13 in 10.0 mi WSW 5.8 mph - N/A   Overcast
11:53 PM 57.0 °F 50.0 °F 77% 30.12 in 10.0 mi West 4.6 mph - N/A   Overcast